Weather History for KEPH - January, 2014

Change the Weather History Date:

Thursday, January 16, 2014

  Actual Average Record
Temperature  
Mean Temperature 33 °F 29 °F  
Max Temperature 42 °F 35 °F 54 °F (1994)
Min Temperature 23 °F 23 °F -14 °F (1950)
Degree Days  
Heating Degree Days 32 36  
Month to date heating degree days 494 599  
Since 1 July heating degree days 3079 3185  
Cooling Degree Days 0 0  
Month to date cooling degree days 0 0  
Year to date cooling degree days 0 0  
Moisture  
Dew Point 27 °F    
Average Humidity 84    
Maximum Humidity 100    
Minimum Humidity 67    
Precipitation  
Precipitation 0.00 in 0.03 in 0.60 in (1971)
Month to date precipitation 0.02 0.52  
Year to date precipitation 0.02 0.52  
Sea Level Pressure  
Sea Level Pressure 30.54 in    
Wind  
Wind Speed 6 mph (North)    
Max Wind Speed 12 mph    
Max Gust Speed 13 mph    
Visibility 6 miles    
Events Fog    
T = Trace of Precipitation, MM = Missing Value Source: NWS Daily Summary

Daily Weather History Graph

Daily Weather History Graph

Search for Another Location

Airport or City:

Trip Planner

Search our weather history database for the weather conditions in past years. The results will help you decide how hot, cold, wet, or windy it might be!

Date:

Astronomy

Jan. 16, 2014 Rise Set
Actual Time 7:39 AM PST 4:36 PM PST
Civil Twilight 7:05 AM PST 5:10 PM PST
Nautical Twilight 6:27 AM PST 5:48 PM PST
Astronomical Twilight 5:50 AM PST 6:25 PM PST
Moon 5:40 PM PST (1/16) 7:30 AM PST (1/16)
Length of Visible Light 10h 05m
Length of Day
8h 56m
Full, 100% of the Moon is Illuminated
Jan 16
Full
Jan 23
Last Quarter
Jan 30
New
Feb 6
First Quarter
Feb 14
Full

Hourly Weather History & Observations

Time (PST) Temp. Windchill Dew Point Humidity Pressure Visibility Wind Dir Wind Speed Gust Speed Precip Events Conditions
12:53 AM 28.0 °F 22.8 °F 26.1 °F 92% 30.56 in 9.0 mi North 4.6 mph - N/A   Clear
1:53 AM 28.0 °F 20.8 °F 26.1 °F 92% 30.57 in 8.0 mi North 6.9 mph - N/A   Clear
2:53 AM 25.0 °F 18.1 °F 23.0 °F 92% 30.58 in 5.0 mi North 5.8 mph - N/A   Clear
3:53 AM 23.0 °F 15.8 °F 21.0 °F 92% 30.58 in 8.0 mi North 5.8 mph - N/A   Clear
4:53 AM 25.0 °F 18.1 °F 23.0 °F 92% 30.58 in 9.0 mi North 5.8 mph - N/A   Clear
5:43 AM 24.8 °F 15.3 °F 23.0 °F 93% 30.54 in 2.0 mi North 9.2 mph - N/A   Scattered Clouds
5:45 AM 26.6 °F 17.5 °F 24.8 °F 93% 30.54 in 1.2 mi North 9.2 mph - N/A   Mostly Cloudy
5:53 AM 26.1 °F 18.4 °F 24.1 °F 92% 30.58 in 0.5 mi North 6.9 mph - N/A Fog Light Freezing Fog
6:01 AM 26.6 °F 19.1 °F 24.8 °F 93% 30.53 in 0.2 mi North 6.9 mph - N/A Fog Light Freezing Fog
6:53 AM 24.1 °F 17.0 °F 23.0 °F 96% 30.58 in 0.2 mi NNE 5.8 mph - N/A Fog Light Freezing Fog
7:53 AM 27.0 °F 19.5 °F 26.1 °F 96% 30.60 in 0.2 mi North 6.9 mph - N/A Fog Light Freezing Fog
8:53 AM 28.9 °F 21.9 °F 28.0 °F 96% 30.60 in 0.2 mi North 6.9 mph - N/A Fog Light Freezing Fog
9:48 AM 30.2 °F 22.6 °F 28.4 °F 93% 30.56 in 0.2 mi North 8.1 mph - N/A Fog Light Freezing Fog
9:53 AM 30.0 °F 21.7 °F 28.9 °F 96% 30.61 in 0.2 mi NNE 9.2 mph - N/A Fog Light Freezing Fog
10:02 AM 30.2 °F 21.3 °F 30.2 °F 100% 30.56 in 0.8 mi NNE 10.4 mph - N/A   Overcast
10:09 AM 30.2 °F 22.6 °F 30.2 °F 100% 30.56 in 1.2 mi North 8.1 mph - N/A   Overcast
10:18 AM 32.0 °F 24.8 °F 30.2 °F 93% 30.55 in 3.0 mi NNE 8.1 mph - N/A   Mostly Cloudy
10:34 AM 32.0 °F 25.6 °F 32.0 °F 100% 30.55 in 10.0 mi NNE 6.9 mph - N/A   Scattered Clouds
10:53 AM 35.1 °F 29.3 °F 33.1 °F 92% 30.60 in 10.0 mi NNE 6.9 mph - N/A   Partly Cloudy
11:53 AM 37.9 °F 32.7 °F 32.0 °F 79% 30.57 in 10.0 mi NE 6.9 mph - N/A   Clear
12:53 PM 39.9 °F 35.1 °F 30.9 °F 70% 30.53 in 10.0 mi NNE 6.9 mph - N/A   Clear
1:53 PM 41.0 °F 36.4 °F 32.0 °F 70% 30.52 in 10.0 mi NNE 6.9 mph - N/A   Clear
2:53 PM 42.1 °F 38.4 °F 32.0 °F 67% 30.50 in 10.0 mi North 5.8 mph - N/A   Clear
3:53 PM 39.9 °F 35.8 °F 30.9 °F 70% 30.49 in 10.0 mi North 5.8 mph - N/A   Clear
4:53 PM 35.1 °F 31.0 °F 28.0 °F 76% 30.50 in 10.0 mi NNW 4.6 mph - N/A   Clear
5:53 PM 30.9 °F 26.2 °F 27.0 °F 85% 30.50 in 10.0 mi North 4.6 mph - N/A   Clear
6:53 PM 28.9 °F 22.8 °F 26.1 °F 89% 30.49 in 10.0 mi North 5.8 mph - N/A   Clear
7:53 PM 30.0 °F 22.4 °F 27.0 °F 88% 30.48 in 10.0 mi North 8.1 mph - N/A   Clear
8:53 PM 26.1 °F 18.4 °F 24.1 °F 92% 30.47 in 10.0 mi North 6.9 mph - N/A   Clear
9:53 PM 26.1 °F 19.4 °F 24.1 °F 92% 30.47 in 10.0 mi North 5.8 mph - N/A   Clear
10:53 PM 25.0 °F 18.1 °F 23.0 °F 92% 30.46 in 10.0 mi North 5.8 mph - N/A   Clear
11:53 PM 23.0 °F 15.8 °F 21.0 °F 92% 30.45 in 9.0 mi North 5.8 mph - N/A   Clear